Retour au catalogue

FENGYUN 1C DEB

ActifSSO
NORAD 35231·DEBRIS·🇨🇳 China

Lancé May 10, 1999 depuis Taiyuan Satellite Launch Center

Loading…

Prochains Passages (prochaines 24 heures)

TLE

VieillissantSource: Space-Track

Époque: Sep 11, 2026, 01:32 UTC

1 35231U 99025DQP 26254.06430571 -.00000001  00000-0  21527-4 0  9997
2 35231  98.6840 295.2671 0037450  28.8693 331.4542 14.14546994953521

Suivez FENGYUN 1C DEB en temps réel avec AllMySat

Download on the App Store